Previsão horária em Juchitlán

Hoje, 24 Junho, Quinta-feira

Tempo Temperatura Precipitação Vento Pressão Humidade
00:00 +19°C° 0.1 mm 0 m/s 649 mmHg 84%
01:00 +19°C° 0.1 mm 0 m/s 649 mmHg 84%
02:00 +19°C° 0.1 mm 0 m/s 649 mmHg 84%
03:00 +19°C° 0.3 mm 0 m/s 649 mmHg 83%
04:00 +19°C° 0.3 mm 0 m/s 649 mmHg 82%
05:00 +21°C° 0.3 mm 1 m/s 649 mmHg 81%
06:00 +20°C° 0.2 mm 0 m/s 649 mmHg 79%
07:00 +20°C° 0.2 mm 0 m/s 649 mmHg 78%
08:00 +20°C° 0.2 mm 0 m/s 650 mmHg 76%
09:00 +21°C° 0.3 mm 0 m/s 650 mmHg 72%
10:00 +24°C° 0.3 mm 1 m/s 650 mmHg 68%
11:00 +25°C° 0.3 mm 1 m/s 650 mmHg 63%
12:00 +26°C° 0.3 mm 1 m/s 649 mmHg 61%
13:00 +27°C° 0.3 mm 1 m/s 649 mmHg 58%
14:00 +27°C° 0.3 mm 2 m/s 649 mmHg 55%
15:00 +26°C° 0.7 mm 1 m/s 648 mmHg 60%
16:00 +25°C° 0.7 mm 1 m/s 648 mmHg 64%
17:00 +25°C° 0.7 mm 1 m/s 647 mmHg 69%
18:00 +24°C° 1.5 mm 1 m/s 647 mmHg 73%
19:00 +23°C° 1.5 mm 1 m/s 648 mmHg 78%
20:00 +22°C° 1.5 mm 1 m/s 648 mmHg 82%
21:00 +22°C° 0.7 mm 1 m/s 648 mmHg 82%
22:00 +20°C° 0.7 mm 0 m/s 648 mmHg 82%
23:00 +20°C° 0.7 mm 0 m/s 648 mmHg 82%

Amanhã, 25 Junho, Sexta-feira

Tempo Temperatura Precipitação Vento Pressão Humidade
00:00 +20°C° 0.7 mm 0 m/s 648 mmHg 83%
01:00 +19°C° 0.7 mm 0 m/s 647 mmHg 84%
02:00 +19°C° 0.7 mm 0 m/s 647 mmHg 85%
03:00 +19°C° 0.2 mm 0 m/s 647 mmHg 86%
04:00 +18°C° 0.2 mm 0 m/s 647 mmHg 88%
05:00 +18°C° 0.2 mm 0 m/s 647 mmHg 89%
06:00 +19°C° 0.3 mm 0 m/s 647 mmHg 84%
07:00 +20°C° 0.3 mm 0 m/s 648 mmHg 80%
08:00 +21°C° 0.3 mm 0 m/s 648 mmHg 76%
09:00 +25°C° 0.3 mm 1 m/s 648 mmHg 69%
10:00 +26°C° 0.3 mm 1 m/s 648 mmHg 63%
11:00 +28°C° 0.3 mm 1 m/s 648 mmHg 56%
12:00 +28°C° 0.6 mm 1 m/s 648 mmHg 55%
13:00 +28°C° 0.6 mm 2 m/s 647 mmHg 54%
14:00 +29°C° 0.6 mm 2 m/s 647 mmHg 52%
15:00 +28°C° 0.6 mm 2 m/s 646 mmHg 57%
16:00 +27°C° 0.6 mm 3 m/s 646 mmHg 62%
17:00 +26°C° 0.6 mm 3 m/s 646 mmHg 67%
18:00 +25°C° 0.9 mm 3 m/s 646 mmHg 73%
19:00 +24°C° 0.9 mm 2 m/s 646 mmHg 79%
20:00 +21°C° 0.9 mm 2 m/s 646 mmHg 85%
21:00 +21°C° 0.6 mm 2 m/s 646 mmHg 86%
22:00 +21°C° 0.6 mm 2 m/s 647 mmHg 88%
23:00 +21°C° 0.6 mm 1 m/s 647 mmHg 90%

Depois de amanhã, 26 Junho, Sábado

Tempo Temperatura Precipitação Vento Pressão Humidade
00:00 +21°C° 0.5 mm 1 m/s 647 mmHg 90%
01:00 +21°C° 0.5 mm 1 m/s 646 mmHg 90%
02:00 +21°C° 0.5 mm 1 m/s 646 mmHg 90%
03:00 +20°C° 0.3 mm 1 m/s 646 mmHg 90%
04:00 +20°C° 0.3 mm 1 m/s 645 mmHg 91%
05:00 +20°C° 0.3 mm 1 m/s 645 mmHg 92%
06:00 +21°C° 0.3 mm 1 m/s 646 mmHg 87%
07:00 +22°C° 0.3 mm 1 m/s 646 mmHg 82%
08:00 +23°C° 0.3 mm 2 m/s 646 mmHg 77%
09:00 +25°C° 0.2 mm 2 m/s 646 mmHg 69%
10:00 +26°C° 0.2 mm 2 m/s 646 mmHg 62%
11:00 +28°C° 0.2 mm 1 m/s 647 mmHg 54%
12:00 +28°C° 0.4 mm 2 m/s 646 mmHg 53%
13:00 +29°C° 0.4 mm 2 m/s 646 mmHg 51%
14:00 +29°C° 0.4 mm 3 m/s 645 mmHg 49%
15:00 +28°C° 0.3 mm 3 m/s 645 mmHg 54%
16:00 +27°C° 0.3 mm 3 m/s 644 mmHg 58%
17:00 +27°C° 0.3 mm 3 m/s 644 mmHg 63%
18:00 +25°C° 0.4 mm 3 m/s 644 mmHg 70%
19:00 +24°C° 0.4 mm 2 m/s 644 mmHg 77%
20:00 +22°C° 0.4 mm 1 m/s 645 mmHg 84%
21:00 +22°C° 0.3 mm 1 m/s 645 mmHg 85%
22:00 +22°C° 0.3 mm 1 m/s 645 mmHg 85%
23:00 +20°C° 0.3 mm 0 m/s 645 mmHg 86%

27 Junho, Domingo

Tempo Temperatura Precipitação Vento Pressão Humidade
00:00 +21°C° 0.2 mm 1 m/s 644 mmHg 86%
01:00 +21°C° 0.2 mm 1 m/s 644 mmHg 86%
02:00 +21°C° 0.2 mm 1 m/s 643 mmHg 86%
03:00 +21°C° 0.3 mm 1 m/s 643 mmHg 86%
04:00 +21°C° 0.3 mm 1 m/s 643 mmHg 86%
05:00 +20°C° 0.3 mm 1 m/s 643 mmHg 86%
06:00 +22°C° 0 mm 1 m/s 644 mmHg 80%
07:00 +23°C° 0 mm 1 m/s 644 mmHg 75%
08:00 +24°C° 0 mm 1 m/s 645 mmHg 69%
09:00 +26°C° 0 mm 2 m/s 645 mmHg 62%
10:00 +27°C° 0 mm 2 m/s 645 mmHg 54%
11:00 +29°C° 0 mm 3 m/s 645 mmHg 46%
12:00 +29°C° 0 mm 4 m/s 645 mmHg 48%
13:00 +28°C° 0 mm 4 m/s 644 mmHg 51%
14:00 +28°C° 0 mm 5 m/s 644 mmHg 53%
15:00 +27°C° 0 mm 4 m/s 644 mmHg 56%
16:00 +26°C° 0 mm 3 m/s 644 mmHg 59%
17:00 +25°C° 0 mm 2 m/s 643 mmHg 62%
18:00 +24°C° 0 mm 2 m/s 644 mmHg 65%
19:00 +24°C° 0 mm 2 m/s 644 mmHg 68%
20:00 +23°C° 0 mm 2 m/s 644 mmHg 71%
21:00 +21°C° 0 mm 2 m/s 644 mmHg 74%
22:00 +22°C° 0 mm 1 m/s 644 mmHg 76%
23:00 +21°C° 0 mm 1 m/s 644 mmHg 78%

28 Junho, Segunda-feira

Tempo Temperatura Precipitação Vento Pressão Humidade
00:00 +21°C° 0 mm 1 m/s 644 mmHg 78%
01:00 +21°C° 0 mm 1 m/s 644 mmHg 79%
02:00 +21°C° 0 mm 1 m/s 644 mmHg 79%
03:00 +21°C° 0 mm 1 m/s 644 mmHg 80%
04:00 +21°C° 0 mm 1 m/s 644 mmHg 81%
05:00 +21°C° 0 mm 1 m/s 644 mmHg 81%
06:00 +21°C° 0.1 mm 1 m/s 644 mmHg 80%
07:00 +22°C° 0.1 mm 1 m/s 644 mmHg 79%
08:00 +22°C° 0.1 mm 1 m/s 645 mmHg 78%
09:00 +21°C° 0.1 mm 2 m/s 645 mmHg 76%
10:00 +23°C° 0.1 mm 2 m/s 645 mmHg 74%
11:00 +23°C° 0.1 mm 2 m/s 645 mmHg 72%
12:00 +23°C° 0.2 mm 2 m/s 645 mmHg 72%
13:00 +23°C° 0.2 mm 2 m/s 645 mmHg 73%
14:00 +23°C° 0.2 mm 2 m/s 645 mmHg 73%
15:00 +21°C° 0.8 mm 2 m/s 645 mmHg 78%
16:00 +20°C° 0.8 mm 2 m/s 645 mmHg 83%
17:00 +20°C° 0.8 mm 2 m/s 645 mmHg 89%
18:00 +20°C° 0.3 mm 1 m/s 645 mmHg 89%
19:00 +20°C° 0.3 mm 1 m/s 645 mmHg 89%
20:00 +20°C° 0.3 mm 1 m/s 645 mmHg 90%
21:00 +20°C° 0 mm 1 m/s 646 mmHg 89%
22:00 +20°C° 0 mm 1 m/s 646 mmHg 89%
23:00 +20°C° 0 mm 1 m/s 646 mmHg 89%

29 Junho, Terça-feira

Tempo Temperatura Precipitação Vento Pressão Humidade
00:00 +18°C° 0.2 mm 0 m/s 646 mmHg 89%
01:00 +18°C° 0.2 mm 0 m/s 645 mmHg 90%
02:00 +18°C° 0.2 mm 0 m/s 645 mmHg 90%
03:00 +18°C° 0.1 mm 0 m/s 645 mmHg 90%
04:00 +18°C° 0.1 mm 0 m/s 645 mmHg 89%
05:00 +20°C° 0.1 mm 1 m/s 645 mmHg 89%
06:00 +20°C° 0 mm 1 m/s 646 mmHg 88%
07:00 +20°C° 0 mm 1 m/s 646 mmHg 86%
08:00 +20°C° 0 mm 1 m/s 646 mmHg 85%
09:00 +21°C° 0 mm 1 m/s 646 mmHg 81%
10:00 +22°C° 0 mm 1 m/s 646 mmHg 78%
11:00 +22°C° 0 mm 1 m/s 647 mmHg 75%
12:00 +24°C° 0 mm 2 m/s 647 mmHg 69%
13:00 +25°C° 0 mm 2 m/s 647 mmHg 63%
14:00 +26°C° 0 mm 3 m/s 646 mmHg 57%
15:00 +25°C° 0.4 mm 3 m/s 646 mmHg 62%
16:00 +24°C° 0.4 mm 3 m/s 646 mmHg 68%
17:00 +22°C° 0.4 mm 3 m/s 646 mmHg 73%
18:00 +21°C° 0.1 mm 2 m/s 646 mmHg 78%
19:00 +21°C° 0.1 mm 2 m/s 646 mmHg 83%
20:00 +20°C° 0.1 mm 2 m/s 647 mmHg 88%
21:00 +19°C° 0.1 mm 2 m/s 647 mmHg 88%
22:00 +20°C° 0.1 mm 1 m/s 647 mmHg 89%
23:00 +20°C° 0.1 mm 1 m/s 647 mmHg 90%
Mostrar mais

Necessitamos do seu Consentimento

A Meteoprog e os seus Fornecedores de Serviços podem armazenar e aceder a dados pessoais como cookies, identificadores do dispositivo ou outras tecnologias semelhantes existentes no seu dispositivo e processar estes dados para personalizar conteúdos e anúncios, assim como funcionalidades nas redes sociais e análise de tráfego.

  • Armazenar e/ou aceder a informações no seu dispositivo

    Os cookies, identificadores do dispositivo ou outras informações podem ser armazenados ou acedidos no seu dispositivo, para os fins acima indicados.

  • Anúncios e conteúdos personalizados, medição de anúncios e conteúdos, dados sobre o público-alvo e desenvolvimento de produtos

    Os anúncios e os conteúdos podem ser personalizados com base num perfil. Podem ser adicionados dados adicionais para uma maior personalização dos anúncios e dos conteúdos. A eficácia dos anúncios e dos conteúdos pode ser medida. Podem ser obtidas informações sobre o público que visualizou os anúncios e os conteúdos. Estes dados podem ser usados para desenvolver ou melhorar sistemas, softwares ou a experiência do utilizador.

Ao clicar em "Eu concordo”, permitirá o uso de cookies, identificadores do dispositivo e web beacons mencionados ou outras tecnologias semelhantes. As configurações do navegador do seu dispositivo podem ser alteradas.

Para certos fins, podem ser invocados interesses legítimos ao invés de consentimento. Pode ler mais informação sobre este assunto na nossa Política de Privacidade e Cookies.